Lid_Strength_Index
-0 0 0 1 2 3 3 3 2 2 1 1 1 1 1 1 1 1 1 0 0 0
-0 -0 1 1 1 2 2 2 1 1 1 1 1 1 0 1 1 0 0 -0 -0 -0
1 0 0 1 1 1 1 2 2 2 2 2 2 1 0 1 0 0 0 -0 -0 -0
1 1 1 1 1 1 1 2 2 2 2 2 2 1 1 1 0 0 0 -0 0 0
1 1 1 1 1 1 2 2 2 2 2 2 1 1 1 1 1 1 1 1 1 1
1 1 1 1 2 2 2 2 2 2 2 2 2 1 1 1 1 1 1 1 1 1
2 2 2 2 2 2 2 3 2 2 2 2 2 1 1 1 1 1 1 1 1 1
1 2 2 2 2 2 2 3 2 2 2 2 2 3 1 1 1 0 0 0 1 1
3 3 2 2 2 3 3 2 2 2 2 2 3 8 7 4 0 1 1 1 1 1
3 3 2 3 3 3 3 2 2 2 2 2 3 9 8 7 0 1 1 1 2 3
3 3 3 3 3 3 2 2 2 3 3 3 5 9 9 8 1 1 2 2 3 4
3 3 3 3 3 3 3 3 3 3 3 3 4 9 9 7 1 1 2 2 3 5
3 3 3 3 2 2 3 3 3 3 3 7 3 10 10 8 2 2 3 3 4 10
3 3 2 2 2 3 3 3 3 3 3 4 5 6 10 10 4 5 4 5 6 6